Home   Weather   Plovdiv   Past weeks

Flag for Bulgaria Past Weather in Plovdiv, Bulgaria — Yesterday and Last 2 Weeks

Now
72 °F

Mild.


Feels Like: 77 °F
Forecast: 47 / 82 °F
Wind: 7 mph from East

Location: Plovdiv Airport

Current Time: Apr 27, 2017 at 2:29:53 pm

Latest Report: Apr 27, 2017 at 2:00 pm


Visibility: N/A

Pressure: 30.01 "Hg

Humidity: 44%

Dew Point: 48 °F

Location of PlovdivLocation

Past Weather in Plovdiv — Graph

°F

Plovdiv Temperature Yesterday

Maximum temperature yesterday: 75 °F (at 4:30 pm)
Minimum temperature yesterday: 39 °F (at 4:30 am)
Average temperature yesterday: 56 °F

High & Low Weather Summary for the Past Weeks

 TemperatureHumidityPressure
High77 °F (Apr 14, 3:00 pm)100% (Apr 13, 5:00 am)30.24 "Hg (Apr 13, 5:00 am)
Low36 °F (Apr 22, 6:30 am)23% (Apr 15, 3:00 pm)29.71 "Hg (Apr 13, 5:00 pm)
Average54 °F62%29.97 "Hg
* Reported Apr 12 1:00 pm — Apr 27 1:30 pm, Plovdiv, Weather by CustomWeather, © 2017

Note: Actual official high and low records may vary slightly from our data, if they occured in-between our weather recording intervals... More about our weather records

Advertising

Plovdiv Weather History for the Previous 24 Hours

Scroll right to see more
 ConditionsComfort  
Time TempWeatherWind HumidityBarometerVisibility
1:30 pm
Thu, Apr 27
72 °FMild.6 mph41%30.04 "HgN/A
1:00 pm68 °FMild.3 mph46%30.04 "HgN/A
12:30 pm68 °FMild.5 mph46%30.04 "HgN/A
12:00 pm66 °FMild.5 mph49%30.04 "HgN/A
11:30 am64 °FMild.2 mph49%30.07 "HgN/A
11:00 am63 °FMild.3 mph52%30.07 "HgN/A
10:30 am61 °FRefreshingly cool.3 mph55%30.07 "HgN/A
10:00 am59 °FRefreshingly cool.2 mph59%30.07 "HgN/A
9:30 am57 °FCool.2 mph63%30.07 "HgN/A
9:00 am55 °FCool.2 mph67%30.07 "HgN/A
8:30 am52 °FCool.2 mph82%30.07 "HgN/A
8:00 am50 °FCool.3 mph82%30.07 "HgN/A
7:30 am46 °FCool.1 mph87%30.07 "HgN/A
7:00 am41 °FQuite cool.3 mph93%30.07 "HgN/A
6:30 am43 °FQuite cool.No wind93%30.07 "HgN/A
6:00 am43 °FQuite cool.3 mph87%30.07 "HgN/A
5:30 am46 °FCool.6 mph82%30.04 "HgN/A
4:30 am48 °FCool.7 mph76%30.07 "HgN/A
4:00 am48 °FCool.8 mph76%30.07 "HgN/A
3:30 am50 °FCool.10 mph76%30.07 "HgN/A
3:00 am48 °FCool.7 mph82%30.07 "HgN/A
2:30 am48 °FCool.7 mph82%30.07 "HgN/A
2:00 am48 °FCool.3 mph82%30.07 "HgN/A
1:30 am52 °FCool.3 mph72%30.07 "HgN/A
1:00 am54 °FCool.5 mph67%30.07 "HgN/A
12:30 am54 °FCool.No wind72%30.07 "HgN/A
12:00 am54 °FCool.No wind72%30.04 "HgN/A
11:00 pm
Wed, Apr 26
55 °FCool.3 mph67%30.04 "HgN/A
10:30 pm57 °FCool.3 mph63%30.04 "HgN/A
10:00 pm57 °FCool.7 mph63%30.01 "HgN/A
9:00 pm64 °FMild.2 mph52%29.98 "HgN/A
8:30 pm66 °FMild.3 mph49%29.98 "HgN/A
8:00 pm70 °FMild.9 mph43%29.98 "HgN/A
7:30 pm72 °FMild.13 mph38%29.95 "HgN/A
7:00 pm73 °FMild.15 mph38%29.95 "HgN/A
6:30 pm73 °FMild.17 mph36%29.98 "HgN/A
6:00 pm75 °FMild.16 mph36%29.98 "HgN/A
5:30 pm75 °FMild.15 mph34%29.98 "HgN/A
5:00 pm75 °FMild.13 mph36%29.98 "HgN/A
4:30 pm75 °FMild.14 mph36%30.01 "HgN/A
4:00 pm73 °FMild.13 mph38%30.01 "HgN/A
3:00 pm72 °FMild.9 mph41%30.04 "HgN/A
2:30 pm70 °FMild.10 mph40%30.04 "HgN/A
2:00 pm68 °FMild.8 mph40%30.07 "HgN/A
Weather by CustomWeather, © 2017

See weather overviewHow to use our weather pages